Regional Weather Roundup
Issued by NWS Sioux Falls, SD

Home | Current Version | Previous Version | Text Only | Print | Product List | Glossary On
Versions: 1 2 3 4 5 6 7 8 9 10 11 12 13 14 15 16 17 18 19 20 21 22 23 24 25 26 27 28 29 30 31 32 33 34 35 36 37 38 39 40 41 42 43 44 45 46 47 48 49 50
000
ASUS43 KFSD 220402
RWRFSD

WEATHER ROUNDUP FOR SE SOUTH DAKOTA/SW MINNESOTA/NW IOWA
NATIONAL WEATHER SERVICE SIOUX FALLS SD
1100 PM CDT THU AUG 21 2014

NOTE: "FAIR" INDICATES FEW OR NO CLOUDS BELOW 12,000 FEET WITH NO
SIGNIFICANT WEATHER AND OR OBSTRUCTIONS TO VISIBILITY.


SDZ038>040-050-052>070-220500-
SOUTHEAST SOUTH DAKOTA

CITY           SKY/WX    TMP DP  RH WIND       PRES   REMARKS
CHAMBERLAIN    PTCLDY    72  65  78 E5        29.92R
HURON          PTCLDY    72  66  81 NE8       29.90R
MADISON        FAIR      68  68 100 CALM      29.93R
MITCHELL       PTCLDY    71  66  84 N3        29.91R
SIOUX FALLS    PTCLDY    72  69  90 N6        29.90R
WINNER         FAIR      73  61  65 S6        29.94R
YANKTON        PTCLDY    75  70  83 N7        29.89R
$$

MNZ071-072-080-081-089-090-097-098-220500-
SOUTHWEST MINNESOTA

CITY           SKY/WX    TMP DP  RH WIND       PRES   REMARKS
FAIRMONT       PTCLDY    72  63  73 MISG      29.87S
JACKSON        CLEAR     70  64  83 E3        29.89R
LUVERNE        CLEAR     73  68  83 N3        29.90S
MARSHALL       CLEAR     70  66  88 CALM      29.88
MONTEVIDEO     CLEAR     73  68  83 CALM      29.88R
PIPESTONE      CLEAR     72  68  88 CALM      29.92R
REDWOOD FALLS  CLEAR     74  72  93 W5        29.86R
TRACY          CLEAR     73  69  89 CALM      29.89S
WINDOM         CLEAR     72  66  83 W7        29.89R
WORTHINGTON    CLEAR     70  12  11 NW5       29.91S
$$

IAZ001>003-012>014-020>022-031-032-NEZ013-014-SDZ071-220500-
NORTHWEST IOWA

CITY           SKY/WX    TMP DP  RH WIND       PRES   REMARKS
CHEROKEE       PTCLDY    76  76  99 CALM      29.87S
DENISON        CLEAR     75  75 100 CALM      29.87R
ESTHERVILLE    CLEAR     71  70  96 N5        29.88R
LE MARS        PTCLDY    79  75  89 N3        29.88S
ORANGE CITY    PTCLDY    81  72  74 N6        29.89S
SHELDON        PTCLDY    73  73 100 CALM      29.88S
SIOUX CITY     CLEAR     78  74  87 CALM      29.86S
SPENCER        CLEAR     73  69  87 S8        29.87F
STORM LAKE     CLEAR     75  75 100 S5        29.89F
$$

ABBREVIATIONS USED IN REMARKS
   TC - TEMPERATURE IN CELSIUS
  WCI - WIND CHILL INDEX
   HX - HEAT INDEX
  VSB - VISIBILITY



USA.gov is the U.S. government's official web portal to all federal, state and local government web resources and services.